Terug naar catalogus

LEMUR 2 EMERSONROSE

ActiefWetenschapSSO
NORAD 63261·PAYLOAD·🇺🇸 United States

Gelanceerd Mar 15, 2025 vanaf Vandenberg Space Force Base

Loading…

Volgende Passages (komende 24 uur)

TLE

VersSource: Space-Track

Epoch: Sep 14, 2026, 12:28 UTC

1 63261U 25052BD  26257.51962444  .00003777  00000-0  31128-3 0  9991
2 63261  97.6763 149.6138 0005305  98.9717 261.2107 14.99637091 82125

Volg LEMUR 2 EMERSONROSE in realtime met AllMySat

Download on the App Store